DW7933 Weather Reports


Display with metric or nautical units.
time (UTC)temp
F
wind
direction
speed
MPH
gust
MPH
rain 1hr
in
rain 24hr
in
rain mn
in
humidity
%
barometer
mb
20260504214547 82 142 0.0 0.0 0.00 0.00 0.00 45 1014.1
20260504213040 81 188 0.0 4.0 0.00 0.00 0.00 48 1014.0
20260504211525 81 170 1.0 4.0 0.00 0.00 0.00 46 1014.1
20260504210011 80 119 2.0 7.0 0.00 0.00 0.00 47 1014.3
20260504204552 81 174 2.0 7.0 0.00 0.00 0.00 45 1014.6
20260504203047 80 262 1.0 7.0 0.00 0.00 0.00 47 1014.6
20260504201524 81 181 0.0 0.0 0.00 0.00 0.00 48 1014.9
20260504200021 81 337 0.0 8.0 0.00 0.00 0.00 46 1015.1
20260504194506 81 257 2.0 5.0 0.00 0.00 0.00 48 1015.4
20260504193118 80 306 0.0 9.0 0.00 0.00 0.00 47 1015.5
20260504191601 79 101 3.0 6.0 0.00 0.00 0.00 48 1015.7
20260504190112 79 305 0.0 5.0 0.00 0.00 0.00 49 1016.0
20260504184603 79 167 4.0 8.0 0.00 0.00 0.00 52 1016.1
20260504183043 78 133 0.0 7.0 0.00 0.00 0.00 54 1016.3
20260504181539 77 5 0.0 4.0 0.00 0.00 0.00 56 1016.4
20260504180033 77 329 0.0 0.0 0.00 0.00 0.00 55 1016.6
20260504174511 76 160 4.0 8.0 0.00 0.00 0.00 53 1016.9
20260504173006 76 319 3.0 9.0 0.00 0.00 0.00 53 1017.1
20260504171546 77 219 5.0 8.0 0.00 0.00 0.00 52 1017.1
20260504140111 66 150 0.0 0.0 0.00 0.00 0.00 68 1018.5
20260504081542 44 19 0.0 0.0 0.00 0.00 0.00 11 1018.2
20260504050001 49 19 0.0 0.0 0.00 0.00 0.00 11 1019.2
20260504044557 49 19 0.0 0.0 0.00 0.00 0.00 11 1019.0
20260504043035 49 19 0.0 0.0 0.00 0.00 0.00 11 1018.9
20260504041530 50 19 0.0 0.0 0.00 0.00 0.00 11 1019.0
20260504040008 51 19 0.0 0.0 0.00 0.00 0.00 11 1018.9
20260504034505 51 19 0.0 0.0 0.00 0.00 0.00 11 1018.9
20260504033051 52 19 0.0 0.0 0.00 0.00 0.00 11 1018.9
20260504031538 52 19 0.0 0.0 0.00 0.00 0.00 11 1019.0
20260504030018 53 19 0.0 0.0 0.00 0.00 0.00 11 1018.9
20260504024534 53 19 0.0 0.0 0.00 0.00 0.00 11 1018.9
20260504023051 53 19 0.0 0.0 0.00 0.00 0.00 11 1018.8
20260504021552 54 19 0.0 0.0 0.00 0.00 0.00 11 1018.7
20260504020026 55 19 0.0 0.0 0.00 0.00 0.00 11 1018.6
20260504014520 55 19 0.0 0.0 0.00 0.00 0.00 32 1018.3
20260504013109 56 19 0.0 0.0 0.00 0.00 0.00 46 1018.2
20260504011554 58 19 0.0 0.0 0.00 0.00 0.00 61 1017.9
20260504010032 59 19 0.0 0.0 0.00 0.00 0.00 70 1017.6
20260504004539 62 18 0.0 0.0 0.00 0.00 0.00 72 1017.2
20260504003005 66 18 0.0 0.0 0.00 0.00 0.00 68 1017.1
20260504001502 71 18 0.0 0.0 0.00 0.00 0.00 61 1017.1
20260504000042 73 17 0.0 0.0 0.00 0.00 0.00 53 1017.1
20260503234538 72 18 0.0 0.0 0.00 0.00 0.00 53 1017.1
20260503233013 72 337 0.0 5.0 0.00 0.00 0.00 50 1017.1
20260503231510 72 333 4.0 8.0 0.00 0.00 0.00 47 1017.2
20260503230052 73 338 2.0 7.0 0.00 0.00 0.00 46 1017.3
20260503224544 73 322 2.0 10.0 0.00 0.00 0.00 44 1017.3
20260503223023 73 307 6.0 9.0 0.00 0.00 0.00 44 1017.3
20260503221518 73 245 3.0 8.0 0.00 0.00 0.00 46 1017.2